Location: Montreal
(45.5087°N, 73.5540°W)
Time: 09:49:04
(UTC-04:00)

X-37B - Pass Details

Date: 28 September 2021
Orbit: 342 x 346 km, 45.0° (Epoch: 22 October)

Event Time Altitude Azimuth Distance (km) Brightness Sun altitude
Exits shadow 06:08:08 11° 273° (W) 1,227 2.4 -8.0°
Maximum altitude 06:10:52 76° 188° (S) 358 0.4 -7.5°
Drops below altitude 10° 06:13:46 10° 102° (ESE) 1,295 4.7 -7.0°
Sets 06:15:47 0° 100° (E) 2,135 6.3 -6.7°
